Location: Dodgeville, WI 53533, USA
(43.0344°N, 90.0900°W)
Time: 17:38:07
(UTC-06:00)

N. Korean satellite - Pass Details

Date: 28 January 2021
Orbit: 451 x 502 km, 97.2° (Epoch: 06 March)

Event Time Altitude Azimuth Distance (km) Brightness Sun altitude
Rises 05:14:22 0° 16° (NNE) 2,495 10.3 -22.9°
Reaches altitude 10° 05:16:28 10° 21° (NNE) 1,609 9.4 -22.5°
Maximum altitude 05:19:50 54° 100° (E) 561 7.1 -21.9°
Drops below altitude 10° 05:23:10 10° 179° (S) 1,580 9.2 -21.3°
Sets 05:25:12 0° 184° (S) 2,445 10.2 -20.9°
